Weather History for Berlin Tegel, Germany

Change the Weather History Date:

Thursday, January 3, 2013

  Actual Average Record
Temperature  
Mean Temperature 44 °F -  
Max Temperature 50 °F 37 °F 50 °F (1998)
Min Temperature 39 °F 28 °F 10 °F (1997)
Degree Days  
Heating Degree Days 20    
Moisture  
Dew Point 42 °F    
Average Humidity 89    
Maximum Humidity 100    
Minimum Humidity 72    
Precipitation  
Precipitation 0.02 in - - ()
Sea Level Pressure  
Sea Level Pressure 30.18 in    
Wind  
Wind Speed 14 mph ()    
Max Wind Speed 21 mph    
Max Gust Speed 30 mph    
Visibility 5.3 miles    
Events Rain    
Averages and records for this station are not official NWS values.
T = Trace of Precipitation, MM = Missing Value Source: Averaged Metar Reports

Daily Weather History Graph

Daily Weather History Graph

Search for Another Location

Airport:

Trip Planner

Search our weather history database for the weather conditions in past years. The results will help you decide how hot, cold, wet, or windy it might be!

Date:

Astronomy

Jan. 03, 2013 Rise Set
Actual Time 8:17 AM CET 4:05 PM CET
Civil Twilight 7:36 AM CET 4:46 PM CET
Nautical Twilight 6:52 AM CET 5:30 PM CET
Astronomical Twilight 6:10 AM CET 6:12 PM CET
Moon 11:17 PM CET (1/3) 10:30 AM CET (1/3)
Length of Visible Light 9h 10m
Length of Day
7h 48m
Waning Gibbous, 68% of the Moon is Illuminated
Jan 3
Waning Gibbous
Jan 5
Last Quarter
Jan 11
New
Jan 19
First Quarter
Jan 27
Full

Hourly Weather History & Observations

Time (CET) Temp. Windchill Dew Point Humidity Pressure Visibility Wind Dir Wind Speed Gust Speed Precip Events Conditions
12:00 AM 42 °F - 37 °F 75% 30.25 in 25 mi WSW 11.2 mph - -   Mostly Cloudy
12:20 AM 41.0 °F 33.9 °F 37.4 °F 87% 30.24 in 6.2 mi WSW 12.7 mph - N/A   Mostly Cloudy
12:50 AM 41.0 °F 33.5 °F 37.4 °F 87% 30.24 in 6.2 mi WSW 13.8 mph - N/A   Mostly Cloudy
1:20 AM 42.8 °F 35.4 °F 35.6 °F 76% 30.24 in 6.2 mi WSW 15.0 mph - N/A   Mostly Cloudy
1:50 AM 42.8 °F 36.6 °F 35.6 °F 76% 30.24 in 6.2 mi SW 11.5 mph - N/A   Mostly Cloudy
2:00 AM 42 °F - 36 °F 73% 30.25 in 22 mi SW 11.2 mph - -   Mostly Cloudy
2:20 AM 42.8 °F 36.2 °F 35.6 °F 76% 30.24 in 6.2 mi SW 12.7 mph - N/A   Mostly Cloudy
2:50 AM 41.0 °F 33.9 °F 35.6 °F 81% 30.21 in 6.2 mi SW 12.7 mph - N/A Rain Light Rain
3:00 AM 42 °F - 36 °F 72% 30.24 in 16 mi SW 11.2 mph - - Rain Light Rain
3:20 AM 42.8 °F 35.8 °F 35.6 °F 76% 30.21 in 6.2 mi SW 13.8 mph - N/A Rain Light Rain
3:50 AM 41.0 °F 33.9 °F 37.4 °F 87% 30.18 in 6.2 mi SW 12.7 mph - N/A Rain Light Rain
4:20 AM 41.0 °F 33.5 °F 37.4 °F 87% 30.18 in 6.2 mi SW 13.8 mph - N/A Rain Light Rain
4:50 AM 41.0 °F 33.9 °F 37.4 °F 87% 30.18 in 6.2 mi SW 12.7 mph - N/A Rain Rain
5:00 AM 41 °F - 37 °F 82% 30.19 in 8 mi SW 13.4 mph - - Rain Rain
5:20 AM 41.0 °F 33.5 °F 37.4 °F 87% 30.15 in 6.2 mi SW 13.8 mph - N/A Rain Light Rain
5:50 AM 39.2 °F 31.2 °F 37.4 °F 93% 30.15 in 6.2 mi SW 13.8 mph - N/A Rain Light Rain
6:00 AM 40 °F - 38 °F 88% 30.17 in 8 mi SW 13.4 mph - - Rain Light Rain
6:20 AM 39.2 °F 31.6 °F 37.4 °F 93% 30.15 in 3.7 mi SW 12.7 mph - N/A Rain Light Rain
6:50 AM 39.2 °F 31.2 °F 39.2 °F 100% 30.12 in 3.7 mi SW 13.8 mph - N/A Rain Light Rain
7:00 AM 40 °F - 38 °F 92% 30.15 in 4 mi SW 13.4 mph - - Rain Light Rain
7:20 AM 41.0 °F 33.5 °F 39.2 °F 93% 30.12 in 3.7 mi SW 13.8 mph - N/A Rain Light Rain
7:50 AM 41.0 °F 34.3 °F 39.2 °F 93% 30.12 in 3.1 mi SW 11.5 mph - N/A Rain Light Rain
8:00 AM 41 °F - 39 °F 91% 30.14 in 3 mi SW 11.2 mph - - Rain Light Rain
8:20 AM 41.0 °F 32.8 °F 39.2 °F 93% 30.12 in 3.1 mi WSW 16.1 mph - N/A Rain Light Rain
8:50 AM 41.0 °F 32.8 °F 41.0 °F 100% 30.12 in 3.1 mi WSW 16.1 mph - N/A Rain Light Rain
9:00 AM 42 °F - 40 °F 92% 30.14 in 3 mi WSW 15.7 mph - - Rain Light Rain
9:20 AM 42.8 °F 34.5 °F 41.0 °F 93% 30.12 in 3.1 mi WSW 18.4 mph - N/A   Overcast
9:50 AM 42.8 °F 34.3 °F 42.8 °F 100% 30.12 in - WSW 19.6 mph - N/A Rain Light Rain
10:00 AM 43 °F - 42 °F 94% 30.14 in 3 mi WSW 17.9 mph - - Rain Light Rain
10:20 AM 42.8 °F 34.5 °F 42.8 °F 100% 30.12 in - West 18.4 mph - N/A Rain Light Rain
10:50 AM 44.6 °F 36.9 °F 44.6 °F 100% 30.12 in - West 18.4 mph - N/A Rain Light Rain
11:00 AM 45 °F - 44 °F 94% 30.13 in 3 mi West 17.9 mph - - Rain Light Rain
11:20 AM 46.4 °F 39.2 °F 46.4 °F 100% 30.12 in 3.7 mi West 18.4 mph - N/A Rain Light Rain
11:50 AM 46.4 °F 38.7 °F 44.6 °F 93% 30.12 in 3.7 mi West 20.7 mph - N/A Rain Light Rain
12:00 PM 47 °F - 45 °F 91% 30.14 in 4 mi West 20.1 mph - - Rain Light Rain
12:20 PM 46.4 °F 39.0 °F 46.4 °F 100% 30.12 in 2.2 mi West 19.6 mph - N/A Rain Light Rain
12:50 PM 48.2 °F - 46.4 °F 93% 30.12 in 3.7 mi West 18.4 mph - N/A Rain Light Rain
1:00 PM 47 °F - 46 °F 95% 30.15 in 4 mi West 17.9 mph - - Rain Light Rain
1:20 PM 48.2 °F - 46.4 °F 93% 30.12 in 4.3 mi West 17.3 mph - N/A   Overcast
1:50 PM 48.2 °F - 46.4 °F 93% 30.12 in 4.3 mi West 20.7 mph - N/A Rain Light Rain
2:00 PM 49 °F - 47 °F 88% 30.14 in 4 mi West 20.1 mph - - Rain Light Rain
2:20 PM 50.0 °F - 46.4 °F 87% 30.12 in 6.2 mi West 18.4 mph - N/A   Mostly Cloudy
2:50 PM 50.0 °F - 46.4 °F 87% 30.15 in 6.2 mi West 17.3 mph - N/A Rain Light Drizzle
3:00 PM 50 °F - 47 °F 86% 30.16 in 6 mi West 17.9 mph - - Rain Light Rain
3:20 PM 50.0 °F - 48.2 °F 94% 30.15 in 4.3 mi West 19.6 mph - N/A Rain Rain
3:50 PM 50.0 °F - 48.2 °F 94% 30.15 in 5.6 mi West 19.6 mph - N/A   Overcast
4:00 PM 49 °F - 48 °F 93% 30.17 in 6 mi West 20.1 mph - - Rain Light Rain
4:20 PM 50.0 °F - 48.2 °F 94% 30.18 in 6.2 mi West 12.7 mph - N/A   Overcast
4:50 PM 50.0 °F - 48.2 °F 94% 30.18 in 3.7 mi West 17.3 mph - N/A Rain Light Rain
5:00 PM 49 °F - 48 °F 94% 30.18 in 4 mi West 17.9 mph - - Rain Light Rain
5:20 PM 50.0 °F - 48.2 °F 94% 30.18 in 3.1 mi West 18.4 mph - N/A Rain Light Rain
5:50 PM 50.0 °F - 48.2 °F 94% 30.18 in 6.2 mi West 17.3 mph 28.8 mph N/A Rain Light Rain
6:00 PM 50 °F - 48 °F 90% 30.19 in 6 mi West 17.9 mph - - Rain Light Rain
6:20 PM 50.0 °F - 48.2 °F 94% 30.18 in 6.2 mi West 16.1 mph - N/A Rain Light Rain
6:50 PM 50.0 °F - 48.2 °F 94% 30.21 in 6.2 mi West 12.7 mph - N/A Rain Light Rain
7:00 PM 50 °F - 48 °F 91% 30.21 in 6 mi West 13.4 mph - - Rain Light Rain
7:20 PM 50.0 °F - 48.2 °F 94% 30.21 in 6.2 mi WNW 13.8 mph - N/A Rain Light Rain
7:50 PM 48.2 °F - 46.4 °F 93% 30.24 in 6.2 mi WNW 15.0 mph - N/A   Mostly Cloudy
8:00 PM 49 °F - 46 °F 86% 30.24 in 25 mi WNW 13.4 mph - - Rain Light Rain
8:20 PM 48.2 °F - 44.6 °F 87% 30.24 in 6.2 mi WNW 15.0 mph 27.6 mph N/A   Mostly Cloudy
8:50 PM 48.2 °F - 42.8 °F 82% 30.24 in 6.2 mi WNW 17.3 mph 29.9 mph N/A   Mostly Cloudy
9:00 PM 48 °F - 43 °F 78% 30.25 in 28 mi WNW 15.7 mph - -   Scattered Clouds
9:20 PM 48.2 °F - 42.8 °F 82% 30.24 in 6.2 mi WNW 15.0 mph 27.6 mph N/A   Mostly Cloudy
9:50 PM 46.4 °F 40.4 °F 42.8 °F 87% 30.24 in 6.2 mi WNW 13.8 mph - N/A   Mostly Cloudy
10:20 PM 46.4 °F 39.8 °F 42.8 °F 87% 30.24 in 6.2 mi WNW 16.1 mph - N/A   Scattered Clouds
10:50 PM 46.4 °F 39.2 °F 41.0 °F 81% 30.27 in 6.2 mi West 18.4 mph - N/A   Scattered Clouds
11:00 PM 47 °F - 42 °F 76% 30.27 in 28 mi West 17.9 mph - -   Partly Cloudy
11:20 PM 46.4 °F 40.1 °F 41.0 °F 81% 30.27 in 6.2 mi WNW 15.0 mph - N/A   Scattered Clouds
11:50 PM 46.4 °F 40.1 °F 41.0 °F 81% 30.27 in 6.2 mi WNW 15.0 mph 26.5 mph N/A   Scattered Clouds